Location: Mizzole
(45.4833°N, 11.0500°E)
Time: 13:22:48
(UTC+00:00)

STARLINK-48 - Pass Details

Date: 21 October 2019
Orbit: 507 x 508 km, 53.0° (Epoch: 18 November)

Event Time Altitude Azimuth Distance (km) Brightness Sun altitude
Rises 17:51:55 0° 299° (WNW) 2,611 8.2 -16.7°
Reaches altitude 10° 17:54:17 10° 309° (NW) 1,725 6.9 -17.1°
Maximum altitude 17:57:50 32° 14° (NNE) 882 4.5 -17.7°
Enters shadow 17:58:39 29° 40° (NE) 947 4.5 -17.8°
